KC5NAM Weather Reports


Display with metric or nautical units.
time (UTC)temp
F
wind
direction
speed
MPH
gust
MPH
rain 1hr
in
rain 24hr
in
rain mn
in
humidity
%
barometer
mb
20260509121038 74 0 0.0 1.0 0.00 0.00 0.00 94 1015.1
20260509120535 74 0 0.0 1.0 0.00 0.00 0.00 94 1014.9
20260509120045 74 0 0.0 0.0 0.00 0.00 0.00 94 1014.8
20260509115534 74 0 0.0 0.0 0.00 0.00 0.00 94 1014.7
20260509115034 74 0 0.0 0.0 0.00 0.00 0.00 94 1014.4
20260509114540 74 0 0.0 0.0 0.00 0.00 0.00 94 1014.3
20260509114037 74 0 0.0 0.0 0.00 0.00 0.00 94 1014.1
20260509113539 74 0 0.0 1.0 0.00 0.00 0.00 94 1014.2
20260509113043 74 0 0.0 1.0 0.00 0.00 0.00 94 1013.9
20260509112535 74 0 0.0 0.0 0.00 0.00 0.00 94 1014.1
20260509112034 73 0 0.0 0.0 0.00 0.00 0.00 94 1013.9
20260509111541 73 0 0.0 1.0 0.00 0.00 0.00 94 1014.0
20260509111034 73 0 0.0 1.0 0.00 0.00 0.00 94 1013.9
20260509110534 73 0 0.0 2.0 0.00 0.00 0.00 94 1013.9
20260509110057 73 0 0.0 5.0 0.00 0.00 0.00 94 1013.8
20260509105534 73 0 0.0 5.0 0.00 0.00 0.00 94 1013.7
20260509105034 73 0 0.0 1.0 0.00 0.00 0.00 94 1013.7
20260509104551 73 0 0.0 0.0 0.00 0.00 0.00 94 1013.7
20260509104037 73 0 0.0 0.0 0.00 0.00 0.00 94 1013.7
20260509103536 73 0 0.0 0.0 0.00 0.00 0.00 94 1013.8
20260509103041 74 0 0.0 0.0 0.00 0.00 0.00 94 1014.0
20260509102536 73 0 0.0 0.0 0.00 0.00 0.00 94 1014.2
20260509102037 73 0 0.0 0.0 0.00 0.00 0.00 94 1014.2
20260509101550 73 0 0.0 0.0 0.00 0.00 0.00 94 1014.2
20260509101036 74 0 0.0 0.0 0.00 0.00 0.00 94 1014.0
20260509100536 73 0 0.0 1.0 0.00 0.00 0.00 94 1014.0
20260509100041 73 0 0.0 1.0 0.00 0.00 0.00 94 1013.8
20260509095536 73 0 0.0 1.0 0.00 0.00 0.00 94 1013.8
20260509095035 73 0 0.0 0.0 0.00 0.00 0.00 95 1013.8
20260509094546 73 0 0.0 0.0 0.00 0.00 0.00 95 1013.8
20260509094036 73 0 0.0 0.0 0.00 0.00 0.00 95 1013.5
20260509093536 73 0 0.0 0.0 0.00 0.00 0.00 95 1013.1
20260509093042 73 0 0.0 0.0 0.00 0.00 0.00 95 1013.2
20260509092539 73 0 0.0 2.0 0.00 0.00 0.00 95 1013.1
20260509092037 73 0 0.0 3.0 0.00 0.00 0.00 95 1012.8
20260509091549 73 0 0.0 3.0 0.00 0.00 0.00 95 1012.6
20260509091037 73 0 0.0 3.0 0.00 0.00 0.00 95 1012.7
20260509090538 73 0 0.0 7.0 0.00 0.00 0.00 95 1012.2
20260509085537 73 0 1.0 10.0 0.00 0.00 0.00 94 1012.3
20260509085036 73 285 1.0 12.0 0.00 0.00 0.00 94 1011.9
20260509084600 73 0 4.0 12.0 0.00 0.00 0.00 94 1010.8
20260509084036 73 149 6.0 12.0 0.00 0.00 0.00 94 1010.1
20260509083535 73 82 4.0 10.0 0.00 0.00 0.00 94 1011.2
20260509083046 73 74 2.0 9.0 0.00 0.00 0.00 94 1012.2
20260509082536 73 0 1.0 7.0 0.00 0.00 0.00 94 1012.5
20260509082038 73 105 0.0 6.0 0.00 0.00 0.00 94 1012.9
20260509081549 73 0 0.0 8.0 0.00 0.00 0.00 94 1013.2
20260509081037 73 141 1.0 9.0 0.00 0.00 0.00 94 1013.3
20260509080536 73 156 0.0 10.0 0.00 0.00 0.00 94 1013.7
20260509080049 74 154 2.0 10.0 0.00 0.00 0.00 94 1013.8
20260509075536 74 144 0.0 8.0 0.00 0.00 0.00 94 1013.9
20260509075036 73 161 2.0 7.0 0.00 0.00 0.00 93 1013.8
20260509074553 74 148 2.0 6.0 0.00 0.00 0.00 93 1013.8
20260509074038 74 139 0.0 5.0 0.00 0.00 0.00 93 1013.8
20260509073536 74 0 1.0 4.0 0.00 0.00 0.00 93 1013.8
20260509073048 74 0 0.0 4.0 0.00 0.00 0.00 93 1013.6
20260509072544 74 0 0.0 3.0 0.00 0.00 0.00 93 1013.5
20260509072036 74 0 0.0 2.0 0.00 0.00 0.00 93 1013.5
20260509071544 74 0 0.0 2.0 0.00 0.00 0.00 93 1013.5
20260509071036 74 0 0.0 2.0 0.00 0.00 0.00 93 1013.5
20260509070539 74 0 0.0 4.0 0.00 0.00 0.00 93 1013.6
20260509070044 74 69 0.0 6.0 0.00 0.00 0.00 93 1013.5
20260509065537 74 0 0.0 6.0 0.00 0.00 0.00 93 1013.6
20260509065036 74 0 0.0 6.0 0.00 0.00 0.00 92 1013.7
20260509064550 74 64 1.0 6.0 0.00 0.00 0.00 92 1013.6
20260509064037 74 0 1.0 7.0 0.00 0.00 0.00 92 1013.9
20260509063536 74 0 1.0 7.0 0.00 0.00 0.00 92 1014.0
20260509063049 74 0 1.0 8.0 0.00 0.00 0.00 92 1013.9
20260509062536 74 92 1.0 9.0 0.00 0.00 0.00 92 1014.0
20260509062036 74 107 3.0 9.0 0.00 0.00 0.00 92 1014.0
20260509061550 74 153 2.0 8.0 0.00 0.00 0.00 92 1014.2
20260509061036 74 0 1.0 7.0 0.00 0.00 0.00 91 1014.3
20260509060536 74 0 1.0 6.0 0.00 0.00 0.00 91 1014.2
20260509060044 74 162 0.0 6.0 0.00 0.00 0.00 91 1014.1
20260509055536 74 0 0.0 4.0 0.00 0.00 0.00 91 1014.1
20260509055035 74 74 0.0 3.0 0.00 0.00 0.00 91 1014.1
20260509054601 74 114 0.0 4.0 0.00 0.00 0.00 91 1014.0
20260509054037 74 0 0.0 4.0 0.00 0.00 0.00 91 1014.0
20260509053538 74 104 0.0 4.0 0.00 0.00 0.00 91 1014.1
20260509053141 74 0 0.0 4.0 0.00 0.00 0.00 91 1014.3
20260509052541 74 122 1.0 3.0 0.00 0.00 0.00 91 1014.5
20260509052036 74 0 0.0 4.0 0.00 0.00 0.00 90 1014.6
20260509051547 74 90 1.0 4.0 0.00 0.00 0.00 90 1014.5
20260509051036 74 156 0.0 6.0 0.00 0.00 0.00 90 1014.6
20260509050537 74 107 1.0 6.0 0.00 0.00 0.00 90 1014.7
20260509050046 74 0 0.0 3.0 0.00 0.00 0.00 90 1014.6
20260509045536 74 82 0.0 4.0 0.00 0.00 0.00 90 1014.7
20260509045037 74 91 1.0 4.0 0.00 0.00 0.00 90 1014.6
20260509044548 74 97 0.0 4.0 0.00 0.00 0.00 90 1014.5
20260509044036 74 0 1.0 4.0 0.00 0.00 0.00 90 1014.3
20260509043536 74 0 0.0 5.0 0.00 0.00 0.00 90 1014.3
20260509043043 74 0 1.0 9.0 0.00 0.00 0.00 90 1014.3
20260509042536 74 63 1.0 9.0 0.00 0.00 0.00 90 1014.1
20260509042036 74 70 3.0 7.0 0.00 0.00 0.00 90 1014.0
20260509041541 74 0 1.0 6.0 0.00 0.00 0.00 90 1014.1
20260509041035 74 0 1.0 8.0 0.00 0.00 0.00 89 1014.0
20260509040536 74 80 2.0 8.0 0.00 0.00 0.00 89 1013.9
20260509040056 74 80 1.0 5.0 0.00 0.00 0.00 89 1013.9
20260509035536 74 69 1.0 8.0 0.00 0.00 0.00 89 1013.8
20260509035037 74 74 2.0 8.0 0.00 0.00 0.00 89 1013.8
20260509034604 74 70 2.0 7.0 0.00 0.00 0.00 89 1013.9
20260509034036 74 76 2.0 7.0 0.00 0.00 0.00 89 1013.9
20260509033536 74 24 1.0 5.0 0.00 0.00 0.00 89 1013.7
20260509033044 74 68 1.0 5.0 0.00 0.00 0.00 89 1013.7
20260509032536 74 0 0.0 7.0 0.00 0.00 0.00 89 1013.8
20260509032035 74 0 0.0 7.0 0.00 0.00 0.00 89 1013.8
20260509031543 74 80 1.0 6.0 0.00 0.00 0.00 89 1013.7
20260509031036 74 72 2.0 7.0 0.00 0.00 0.00 89 1013.6
20260509030537 75 105 2.0 7.0 0.00 0.00 0.00 88 1013.5
20260509030041 75 54 1.0 6.0 0.00 0.00 0.00 88 1013.5
20260509025536 75 70 1.0 7.0 0.00 0.00 0.00 88 1013.5
20260509025036 75 83 2.0 7.0 0.00 0.00 0.00 88 1013.4
20260509024546 75 79 3.0 7.0 0.00 0.00 0.00 88 1013.4
20260509024036 75 80 2.0 7.0 0.00 0.00 0.00 87 1013.2
20260509023537 75 126 2.0 7.0 0.00 0.00 0.00 87 1013.2
20260509023049 75 105 2.0 7.0 0.00 0.00 0.00 87 1013.1
20260509022539 75 71 3.0 7.0 0.00 0.00 0.00 87 1013.1
20260509022037 75 60 1.0 7.0 0.00 0.00 0.00 86 1013.1
20260509021544 75 68 1.0 8.0 0.00 0.00 0.00 86 1013.2
20260509021037 75 84 1.0 8.0 0.00 0.00 0.00 86 1013.1
20260509020535 75 79 1.0 8.0 0.00 0.00 0.00 86 1013.2
20260509020046 75 66 1.0 6.0 0.00 0.00 0.00 86 1013.1
20260509015537 76 0 0.0 6.0 0.00 0.00 0.00 86 1013.0
20260509015037 76 67 0.0 6.0 0.00 0.00 0.00 85 1012.9
20260509014541 76 0 1.0 6.0 0.00 0.00 0.00 85 1012.9
20260509014036 76 83 1.0 6.0 0.00 0.00 0.00 85 1012.8
20260509013538 76 0 1.0 6.0 0.00 0.00 0.00 85 1012.7
20260509013104 76 0 1.0 6.0 0.00 0.00 0.00 85 1012.6
20260509012536 76 89 1.0 7.0 0.00 0.00 0.00 84 1012.4
20260509012038 76 0 0.0 7.0 0.00 0.00 0.00 84 1012.5
20260509011549 76 82 0.0 4.0 0.00 0.00 0.00 84 1012.5
20260509011036 76 59 0.0 6.0 0.00 0.00 0.00 83 1012.5
20260509010537 76 98 1.0 7.0 0.00 0.00 0.00 83 1012.4
20260509010045 77 69 2.0 7.0 0.00 0.00 0.00 82 1012.3
20260509005536 77 81 2.0 6.0 0.00 0.00 0.00 82 1012.3
20260509005036 77 74 2.0 6.0 0.00 0.00 0.00 81 1012.3
20260509004543 77 78 1.0 5.0 0.00 0.00 0.00 81 1012.3
20260509004036 78 64 1.0 5.0 0.00 0.00 0.00 81 1012.3
20260509003540 78 0 0.0 3.0 0.00 0.00 0.00 81 1012.4
20260509003111 78 0 0.0 7.0 0.00 0.00 0.00 81 1012.4
20260509002539 78 113 1.0 7.0 0.00 0.00 0.00 80 1012.4
20260509002036 78 82 3.0 6.0 0.00 0.00 0.00 80 1012.4
20260509001552 78 34 1.0 6.0 0.00 0.00 0.00 80 1012.4
20260509001036 78 0 2.0 6.0 0.00 0.00 0.00 79 1012.5
20260509000538 78 0 0.0 6.0 0.00 0.00 0.00 79 1012.5
20260509000105 79 0 2.0 6.0 0.00 0.00 0.00 79 1012.5
20260508235536 79 78 1.0 7.0 0.00 0.00 0.00 79 1012.4
20260508235036 79 86 2.0 7.0 0.00 0.00 0.00 78 1012.5
20260508234550 79 85 2.0 7.0 0.00 0.00 0.00 78 1012.5
20260508234036 79 70 3.0 7.0 0.00 0.00 0.00 78 1012.5
20260508233537 80 0 0.0 4.0 0.00 0.00 0.00 77 1012.4
20260508233051 80 0 1.0 7.0 0.00 0.00 0.00 77 1012.4
20260508232540 80 0 2.0 7.0 0.00 0.00 0.00 77 1012.5
20260508232036 80 0 1.0 4.0 0.00 0.00 0.00 76 1012.4
20260508231552 80 0 2.0 5.0 0.00 0.00 0.00 77 1012.4
20260508231037 80 74 0.0 7.0 0.00 0.00 0.00 77 1012.4
20260508230536 80 98 3.0 7.0 0.00 0.00 0.00 76 1012.4
20260508230053 80 88 2.0 6.0 0.00 0.00 0.00 76 1012.4
20260508225536 80 76 2.0 7.0 0.00 0.00 0.00 77 1012.4
20260508225037 80 81 3.0 7.0 0.00 0.00 0.00 78 1012.5
20260508224557 80 0 2.0 7.0 0.00 0.00 0.00 77 1012.5
20260508224036 80 84 2.0 6.0 0.00 0.00 0.00 77 1012.6
20260508223536 79 0 1.0 5.0 0.00 0.00 0.00 77 1012.7
20260508223049 79 0 2.0 5.0 0.00 0.00 0.00 77 1012.6
20260508222536 79 81 1.0 5.0 0.00 0.00 0.00 77 1012.7
20260508222038 79 0 0.0 5.0 0.00 0.00 0.00 77 1012.8
20260508221542 79 0 1.0 5.0 0.00 0.00 0.00 76 1012.9
20260508221037 80 0 0.0 6.0 0.00 0.00 0.00 76 1012.8
20260508220536 80 34 2.0 6.0 0.00 0.00 0.00 76 1013.1
20260508220054 80 41 2.0 6.0 0.00 0.00 0.00 76 1013.1
20260508215540 80 14 1.0 6.0 0.00 0.00 0.00 76 1013.1
20260508215038 79 86 0.0 8.0 0.00 0.00 0.00 77 1013.1
20260508214550 79 123 3.0 8.0 0.00 0.00 0.00 76 1013.1
20260508214035 79 62 1.0 6.0 0.00 0.00 0.00 77 1013.2
20260508213536 79 0 2.0 4.0 0.00 0.00 0.00 77 1013.2
20260508213045 79 101 0.0 4.0 0.00 0.00 0.00 77 1013.3
20260508212536 79 0 1.0 5.0 0.00 0.00 0.00 77 1013.4
20260508212035 79 0 0.0 5.0 0.00 0.00 0.00 76 1013.4
20260508211544 79 91 2.0 5.0 0.00 0.00 0.00 76 1013.3
20260508211038 79 56 0.0 7.0 0.00 0.00 0.00 75 1013.5
20260508210536 80 0 1.0 9.0 0.00 0.00 0.00 74 1013.5
20260508210051 80 71 4.0 9.0 0.00 0.00 0.00 73 1013.6
20260508205536 81 69 3.0 9.0 0.00 0.00 0.00 73 1013.6
20260508205036 81 74 2.0 8.0 0.00 0.00 0.00 73 1013.6
20260508204550 81 115 2.0 8.0 0.00 0.00 0.00 73 1013.8
20260508204036 81 91 2.0 9.0 0.00 0.00 0.00 72 1013.9
20260508203536 82 0 2.0 9.0 0.00 0.00 0.00 70 1014.0
20260508203052 82 79 2.0 9.0 0.00 0.00 0.00 70 1013.8
20260508202535 82 78 5.0 9.0 0.00 0.00 0.00 71 1013.9
20260508202036 81 67 2.0 8.0 0.00 0.00 0.00 73 1014.0
20260508201550 80 81 3.0 11.0 0.00 0.00 0.00 74 1013.9
20260508201036 79 67 3.0 11.0 0.00 0.00 0.00 75 1013.9
20260508200536 79 59 4.0 9.0 0.00 0.00 0.00 74 1014.0
20260508200059 79 76 4.0 8.0 0.00 0.00 0.00 74 1014.0
20260508195535 79 90 2.0 8.0 0.00 0.00 0.00 74 1014.0
20260508195036 79 65 2.0 7.0 0.00 0.00 0.00 74 1014.1
20260508194550 79 83 2.0 8.0 0.00 0.00 0.00 73 1014.2
20260508194037 79 80 1.0 8.0 0.00 0.00 0.00 74 1014.2
20260508193536 79 76 2.0 9.0 0.00 0.00 0.00 73 1014.3
20260508193058 79 82 3.0 9.0 0.00 0.00 0.00 73 1014.4
20260508192538 79 0 2.0 10.0 0.00 0.00 0.00 73 1014.4
20260508192036 79 80 4.0 10.0 0.00 0.00 0.00 73 1014.4
20260508191540 79 0 3.0 8.0 0.00 0.00 0.00 72 1014.5
20260508191036 79 0 3.0 7.0 0.00 0.00 0.00 73 1014.5
20260508190538 78 82 2.0 6.0 0.00 0.00 0.00 73 1014.6
20260508190049 78 0 2.0 6.0 0.00 0.00 0.00 72 1014.9
20260508185538 78 96 0.0 7.0 0.00 0.00 0.00 73 1015.0
20260508185036 77 72 1.0 7.0 0.00 0.00 0.00 72 1015.1
20260508184548 77 84 1.0 6.0 0.00 0.00 0.00 72 1015.1
20260508184035 77 86 2.0 6.0 0.00 0.00 0.00 72 1015.1
20260508183536 77 82 0.0 6.0 0.00 0.00 0.00 73 1015.2
20260508183049 77 100 0.0 5.0 0.00 0.00 0.00 73 1015.2
20260508182537 76 0 1.0 3.0 0.00 0.00 0.00 73 1015.3
20260508182036 76 73 0.0 4.0 0.00 0.00 0.00 73 1015.4
20260508181550 76 94 1.0 4.0 0.00 0.00 0.00 74 1015.4
20260508181036 76 90 0.0 4.0 0.00 0.00 0.00 74 1015.5
20260508180536 75 65 0.0 2.0 0.00 0.00 0.00 74 1015.6
20260508180051 75 0 0.0 2.0 0.00 0.00 0.00 75 1015.6
20260508175536 74 0 0.0 2.0 0.00 0.00 0.00 75 1015.7
20260508175037 74 0 0.0 2.0 0.00 0.00 0.00 75 1015.8
20260508174558 74 0 0.0 1.0 0.00 0.00 0.00 74 1015.8
20260508174036 74 0 0.0 3.0 0.00 0.00 0.00 76 1015.9
20260508173537 73 0 0.0 3.0 0.00 0.00 0.00 76 1015.9
20260508173043 73 0 0.0 3.0 0.00 0.00 0.00 76 1015.8
20260508172536 72 0 0.0 2.0 0.00 0.00 0.00 77 1015.6
20260508172036 72 0 0.0 2.0 0.00 0.00 0.00 77 1015.8
20260508171556 72 0 0.0 2.0 0.00 0.00 0.00 76 1015.9
20260508171038 72 0 0.0 2.0 0.00 0.00 0.00 76 1016.0
20260508170536 72 69 0.0 2.0 0.00 0.00 0.00 77 1015.9
20260508170040 71 63 0.0 3.0 0.00 0.00 0.00 76 1016.0
20260508165536 71 0 0.0 3.0 0.00 0.00 0.00 76 1016.2
20260508165036 71 80 0.0 2.0 0.00 0.00 0.00 77 1016.1
20260508164550 71 0 0.0 3.0 0.00 0.00 0.00 77 1016.3
20260508164036 70 0 0.0 4.0 0.00 0.00 0.00 78 1016.3
20260508163539 70 0 0.0 4.0 0.00 0.00 0.00 77 1016.2
20260508163110 70 95 0.0 3.0 0.00 0.00 0.00 79 1016.3
20260508162536 69 77 0.0 3.0 0.00 0.00 0.00 79 1016.4
20260508162036 69 0 0.0 5.0 0.00 0.00 0.00 79 1016.4
20260508161541 69 0 0.0 5.0 0.00 0.00 0.00 78 1016.5
20260508161034 69 351 0.0 6.0 0.00 0.00 0.00 78 1016.2
20260508160534 69 51 1.0 6.0 0.00 0.00 0.00 78 1016.5
20260508160043 68 314 0.0 5.0 0.00 0.00 0.00 79 1016.5
20260508155534 68 0 0.0 5.0 0.00 0.00 0.00 79 1016.5
20260508155037 68 0 0.0 5.0 0.00 0.00 0.00 79 1016.6
20260508154545 68 0 1.0 6.0 0.00 0.00 0.00 80 1016.5
20260508154034 68 52 1.0 6.0 0.00 0.00 0.00 80 1016.7
20260508153534 67 59 1.0 6.0 0.00 0.00 0.00 80 1016.7
20260508153039 67 28 1.0 4.0 0.00 0.00 0.00 80 1016.8
20260508152535 67 85 1.0 4.0 0.00 0.00 0.00 80 1017.1
20260508152037 67 0 0.0 3.0 0.00 0.00 0.00 80 1017.2
20260508151545 67 0 0.0 3.0 0.00 0.00 0.00 80 1017.0
20260508151034 66 0 0.0 9.0 0.00 0.00 0.00 81 1017.1
20260508150534 66 80 0.0 9.0 0.00 0.00 0.00 81 1017.1
20260508150042 66 26 0.0 8.0 0.00 0.00 0.00 81 1017.2
20260508145535 66 0 0.0 8.0 0.00 0.00 0.00 80 1017.4
20260508145036 66 340 2.0 8.0 0.00 0.00 0.00 80 1017.4
20260508144549 66 0 2.0 8.0 0.00 0.00 0.00 80 1017.2
20260508144034 66 0 0.0 8.0 0.00 0.00 0.00 81 1017.2
20260508143535 66 22 2.0 6.0 0.00 0.00 0.00 81 1017.1
20260508143054 65 34 1.0 7.0 0.00 0.00 0.00 81 1017.1
20260508142534 65 323 2.0 7.0 0.00 0.00 0.00 81 1017.3
20260508142034 65 0 0.0 11.0 0.00 0.00 0.00 81 1017.2
20260508141547 65 107 2.0 11.0 0.00 0.00 0.00 82 1017.1
20260508141033 65 24 2.0 6.0 0.00 0.00 0.00 81 1017.1
20260508140534 65 360 2.0 8.0 0.00 0.00 0.00 81 1017.2
20260508140045 65 330 1.0 8.0 0.00 0.00 0.00 82 1017.3
20260508135535 64 352 1.0 8.0 0.00 0.00 0.00 82 1017.0
20260508135037 64 30 1.0 8.0 0.00 0.00 0.00 82 1016.7
20260508134544 64 302 0.0 11.0 0.00 0.00 0.00 82 1016.9
20260508134034 64 0 1.0 11.0 0.00 0.00 0.00 82 1017.1
20260508133539 64 340 0.0 8.0 0.00 0.00 0.00 82 1017.1
20260508133050 64 23 2.0 8.0 0.00 0.00 0.00 82 1017.4
20260508132534 64 5 0.0 3.0 0.00 0.00 0.00 83 1017.5
20260508132034 64 0 0.0 6.0 0.00 0.00 0.00 83 1017.2
20260508131548 64 0 1.0 6.0 0.00 0.00 0.00 83 1016.9
20260508131034 64 0 0.0 5.0 0.00 0.00 0.00 83 1017.2
20260508130535 63 9 0.0 5.0 0.00 0.00 0.00 84 1017.3
20260508130051 63 17 0.0 5.0 0.00 0.00 0.00 84 1017.3
20260508125537 63 346 0.0 6.0 0.00 0.00 0.00 84 1017.2
20260508125037 63 330 0.0 8.0 0.00 0.00 0.00 84 1017.2
20260508124540 63 0 1.0 8.0 0.00 0.00 0.00 83 1017.2
20260508124035 63 297 1.0 8.0 0.00 0.00 0.00 83 1017.0
20260508123535 63 0 1.0 8.0 0.00 0.00 0.00 83 1017.0
20260508123052 63 0 0.0 9.0 0.00 0.00 0.00 83 1017.2
20260508122534 63 0 0.0 9.0 0.00 0.00 0.00 83 1017.3
20260508122034 63 38 1.0 8.0 0.00 0.00 0.00 84 1017.6
20260508121541 63 0 1.0 7.0 0.00 0.00 0.00 84 1017.8